Content
SEND FEEDBACK

Daily
Averages
Monthly
Summary
United States of America

BERKELEY - UNIVERSITY OF CALIFORNIA, CALIFORNIA


Home > North America > United States > California
Elevation: 533 meters     Latitude: 37 52N     Longitude: 122 13W

WEATHER
 
SELECT A DAY
Number of Records: 187,521;   Date Range: 1/1/95 - 11/27/14
 
SHARE

PRINT THIS DATA

[ ← Previous Day ]
WEATHER ALMANAC - 23 JANUARY, 2013
[ Next Day → ]
[ °F ]   °C
Weather ElementAverageHighLow
Temperature11.5 °C13.3 °C (5:53 pm)9 °C (5:05 am)
Dewpoint9.9 °C13 °C (2:21 pm)8 °C (8:27 pm)
Humidity90.1 %100 % (5:05 am)74 % (5:53 pm)
Barometer1017.6 hPa1019.6 hPa (10:53 pm)1015.2 hPa (5:05 am)
Wind Speed6.3 km/h20.4 km/h (3:07 pm)
Wind Gust31.5 km/h (2:53 pm)
Weather ElementAverage
Visibility8 km
Wind DirectionSSE (162.8 °)

Weather ElementTotal
Precipitation4.06 mm
Heating Degree Days7.2 (Base 18.3)
Growing Degree Days1.2 (Base 10)
Averaged from 29 records on 23 January, 2013
WEATHER CONDITIONS BREAKOUT
WIND DIRECTION BREAKOUT
WEATHER BY HOUR - 23 JANUARY, 2013
[ °F ]   °C
Local TimeTemperatureDewpointHumidityBarometerVisibilityWind DirectionWind SpeedGust SpeedPrecipitationEventsConditions
1:53 AM10 °C8.9 °C93 %1016.9 hPa11.3 kmNE (40°)5.6 km/hOvercast
2:53 AM10.6 °C8.9 °C89 %1016.6 hPa11.3 kmNE (50°)5.6 km/hOvercast
3:53 AM10.6 °C8.9 °C89 %1015.9 hPa12.9 kmSE (140°)5.6 km/hOvercast
4:53 AM10 °C9.4 °C96 %1015.9 hPa11.3 kmNNE (30°)5.6 km/hOvercast
5:05 AM9 °C9 °C100 %1015.2 hPa11.3 kmNE (50°)9.3 km/hOvercast
5:53 AM11.1 °C9.4 °C89 %1015.2 hPa11.3 kmCalmOvercast
6:53 AM10 °C8.9 °C93 %1015.9 hPa11.3 kmCalmOvercast
7:53 AM10.6 °C9.4 °C92 %1016.3 hPa9.7 kmCalmOvercast
8:53 AM11.1 °C10 °C93 %1016.9 hPa9.7 kmCalmOvercast
9:53 AM12.2 °C10 °C86 %1017.3 hPa9.7 kmSSW (210°)7.4 km/hOvercast
10:53 AM11.7 °C11.7 °C100 %1017.9 hPa9.7 kmWest (260°)5.6 km/hOvercast
11:53 AM12.2 °C10.6 °C90 %1017.3 hPa4.8 kmNorth (350°)7.4 km/h0 mmRainLight Rain
12:53 PM12.8 °C11.7 °C93 %1017.3 hPa4 kmWSW (250°)7.4 km/h0.25 mmRainLight Rain
1:29 PM12 °C12 °C100 %1017.3 hPa4 kmCalm1.02 mmRainLight Rain
1:53 PM12.8 °C12.8 °C100 %1016.9 hPa4 kmCalm1.27 mmRainLight Rain
2:21 PM13 °C13 °C100 %1016.6 hPa8 kmWest (280°)9.3 km/h0 mmRainLight Rain
2:53 PM11.7 °C11.7 °C100 %1017.6 hPa2.4 kmWest (280°)14.8 km/h31.5 km/h0.25 mmRainLight Rain
3:07 PM12 °C12 °C100 %1017.6 hPa4.8 kmWest (270°)20.4 km/h31.5 km/h0.25 mmRainLight Rain
3:53 PM11.7 °C8.4 °C80 %1017.9 hPa6.4 kmNorth (360°)13 km/h0.25 mmRainLight Rain
4:53 PM12.2 °C8.4 °C78 %1017.6 hPa12.9 kmNorth (360°)9.3 km/h0 mmOvercast
5:53 PM13.3 °C8.8 °C74 %1018.3 hPa16.1 kmNorth (360°)5.6 km/hOvercast
6:53 PM12.2 °C8.4 °C78 %1018.6 hPa8 kmCalm0 mmHaze
7:53 PM11.7 °C8.3 °C80 %1019 hPa6.4 kmCalm0 mmHaze
8:27 PM12 °C8 °C77 %1019.3 hPa4 kmWNW (300°)11.1 km/h0 mmRainLight Rain
8:53 PM11.7 °C8.3 °C80 %1019 hPa4 kmNorth (350°)11.1 km/h0.25 mmRainLight Rain
8:59 PM11 °C11 °C100 %1018.6 hPa6.4 kmNorth (360°)11.1 km/h0 mmRainLight Rain
9:53 PM11.7 °C8.5 °C81 %1019 hPa6.4 kmCalm0 mmRainLight Rain
10:53 PM11.1 °C8.4 °C83 %1019.6 hPa4.8 kmNorth (350°)5.6 km/h0.25 mmRainLight Rain
11:53 PM11.7 °C11.7 °C100 %1019.3 hPa6.4 kmENE (70°)9.3 km/h0.25 mmRainLight Rain
Hourly data recorded from KOAK, located 0 kilometers away from Berkeley - University of California, California







STORIES FROM OUR PARTNERS